When you browse on this site, cookies collect data to enhance your experience and personalize the content and advertising you see.
Visit our Privacy Policy to learn more. By continuing to use the site, you agree to this use of cookies and data.
  • In Latvia
  • List of Countries
  • For 7 days
  • Water Temperature
  • Satellite Maps
  • Weather Map
  • Weather Widgets
  • user-avatar
    Login

    Hourly Weather Carouge

    Today, 21 July, Sunday

    Time Temperature Precipitation Wind Pressure Humidity
    00:00 +21°C° 0.5 mm 1 mps 730 mmHg 90%
    01:00 +21°C° 0.4 mm 1 mps 730 mmHg 90%
    02:00 +20°C° 0.4 mm 1 mps 730 mmHg 90%
    03:00 +20°C° 0.4 mm 1 mps 730 mmHg 91%
    04:00 +21°C° 0.1 mm 1 mps 730 mmHg 90%
    05:00 +21°C° 0.1 mm 1 mps 730 mmHg 89%
    06:00 +20°C° 0.1 mm 0 mps 730 mmHg 88%
    07:00 +24°C° 0.1 mm 1 mps 731 mmHg 79%
    08:00 +26°C° 0.1 mm 1 mps 731 mmHg 70%
    09:00 +28°C° 0.1 mm 1 mps 732 mmHg 61%
    10:00 +29°C° 0 mm 1 mps 731 mmHg 57%
    11:00 +30°C° 0 mm 1 mps 731 mmHg 53%
    12:00 +31°C° 0 mm 1 mps 731 mmHg 49%
    13:00 +31°C° 0 mm 1 mps 731 mmHg 47%
    14:00 +32°C° 0 mm 2 mps 731 mmHg 45%
    15:00 +32°C° 0 mm 2 mps 731 mmHg 43%
    16:00 +30°C° 0 mm 1 mps 731 mmHg 51%
    17:00 +29°C° 0 mm 1 mps 731 mmHg 59%
    18:00 +27°C° 0 mm 1 mps 731 mmHg 67%
    19:00 +26°C° 0 mm 1 mps 731 mmHg 71%
    20:00 +24°C° 0 mm 1 mps 731 mmHg 74%
    21:00 +22°C° 0 mm 1 mps 732 mmHg 78%
    22:00 +22°C° 0 mm 1 mps 732 mmHg 81%
    23:00 +21°C° 0 mm 1 mps 732 mmHg 83%

    Tomorrow, 22 July, Monday

    Time Temperature Precipitation Wind Pressure Humidity
    00:00 +21°C° 0 mm 1 mps 732 mmHg 86%
    01:00 +20°C° 0 mm 1 mps 732 mmHg 87%
    02:00 +20°C° 0 mm 1 mps 732 mmHg 88%
    03:00 +20°C° 0 mm 1 mps 731 mmHg 89%
    04:00 +21°C° 0 mm 1 mps 732 mmHg 86%
    05:00 +22°C° 0 mm 1 mps 732 mmHg 84%
    06:00 +21°C° 0 mm 0 mps 732 mmHg 81%
    07:00 +25°C° 0 mm 1 mps 732 mmHg 74%
    08:00 +27°C° 0 mm 1 mps 732 mmHg 67%
    09:00 +29°C° 0 mm 1 mps 732 mmHg 61%
    10:00 +30°C° 0 mm 1 mps 732 mmHg 57%
    11:00 +31°C° 0 mm 1 mps 732 mmHg 53%
    12:00 +32°C° 0 mm 1 mps 732 mmHg 49%
    13:00 +32°C° 0 mm 1 mps 731 mmHg 47%
    14:00 +32°C° 0 mm 1 mps 731 mmHg 46%
    15:00 +33°C° 0 mm 1 mps 731 mmHg 45%
    16:00 +31°C° 0 mm 1 mps 731 mmHg 53%
    17:00 +30°C° 0 mm 1 mps 731 mmHg 61%
    18:00 +29°C° 0 mm 1 mps 731 mmHg 68%
    19:00 +27°C° 0 mm 1 mps 731 mmHg 71%
    20:00 +25°C° 0 mm 1 mps 731 mmHg 73%
    21:00 +24°C° 0 mm 1 mps 731 mmHg 75%
    22:00 +23°C° 0 mm 1 mps 731 mmHg 76%
    23:00 +22°C° 0 mm 1 mps 731 mmHg 78%

    Day after tomorrow, 23 July, Tuesday

    Time Temperature Precipitation Wind Pressure Humidity
    00:00 +22°C° 0 mm 1 mps 731 mmHg 80%
    01:00 +21°C° 0 mm 1 mps 731 mmHg 81%
    02:00 +21°C° 0 mm 1 mps 730 mmHg 82%
    03:00 +20°C° 0 mm 1 mps 730 mmHg 83%
    04:00 +21°C° 0 mm 1 mps 730 mmHg 81%
    05:00 +22°C° 0 mm 1 mps 730 mmHg 79%
    06:00 +23°C° 0 mm 1 mps 730 mmHg 77%
    07:00 +25°C° 0 mm 1 mps 730 mmHg 70%
    08:00 +28°C° 0 mm 1 mps 730 mmHg 63%
    09:00 +30°C° 0 mm 1 mps 730 mmHg 56%
    10:00 +31°C° 0 mm 1 mps 730 mmHg 52%
    11:00 +33°C° 0 mm 1 mps 729 mmHg 47%
    12:00 +34°C° 0 mm 1 mps 729 mmHg 43%
    13:00 +34°C° 0 mm 1 mps 729 mmHg 42%
    14:00 +34°C° 0 mm 1 mps 729 mmHg 41%
    15:00 +34°C° 0 mm 1 mps 728 mmHg 40%
    16:00 +33°C° 0 mm 1 mps 728 mmHg 48%
    17:00 +29°C° 0 mm 0 mps 728 mmHg 56%
    18:00 +27°C° 0 mm 0 mps 728 mmHg 64%
    19:00 +26°C° 0 mm 0 mps 728 mmHg 65%
    20:00 +27°C° 0 mm 1 mps 728 mmHg 65%
    21:00 +26°C° 0 mm 1 mps 728 mmHg 65%
    22:00 +25°C° 0 mm 1 mps 728 mmHg 67%
    23:00 +25°C° 0 mm 1 mps 728 mmHg 68%

    24 July, Wednesday

    Time Temperature Precipitation Wind Pressure Humidity
    00:00 +24°C° 0 mm 1 mps 728 mmHg 70%
    01:00 +24°C° 0 mm 1 mps 728 mmHg 71%
    02:00 +23°C° 0 mm 1 mps 728 mmHg 72%
    03:00 +23°C° 0 mm 1 mps 728 mmHg 73%
    04:00 +22°C° 0 mm 0 mps 728 mmHg 72%
    05:00 +23°C° 0 mm 0 mps 728 mmHg 72%
    06:00 +24°C° 0 mm 0 mps 728 mmHg 71%
    07:00 +28°C° 0 mm 1 mps 728 mmHg 64%
    08:00 +30°C° 0 mm 1 mps 729 mmHg 58%
    09:00 +32°C° 0 mm 1 mps 729 mmHg 51%
    10:00 +33°C° 0 mm 1 mps 729 mmHg 47%
    11:00 +34°C° 0 mm 1 mps 728 mmHg 44%
    12:00 +35°C° 0 mm 1 mps 728 mmHg 40%
    13:00 +35°C° 0 mm 1 mps 728 mmHg 39%
    14:00 +35°C° 0 mm 1 mps 728 mmHg 38%
    15:00 +35°C° 0 mm 1 mps 728 mmHg 37%
    16:00 +34°C° 0 mm 1 mps 728 mmHg 44%
    17:00 +30°C° 0 mm 0 mps 728 mmHg 52%
    18:00 +29°C° 0 mm 0 mps 728 mmHg 60%
    19:00 +27°C° 0 mm 0 mps 728 mmHg 60%
    20:00 +28°C° 0 mm 1 mps 728 mmHg 60%
    21:00 +27°C° 0 mm 1 mps 728 mmHg 61%
    22:00 +26°C° 0 mm 1 mps 728 mmHg 63%
    23:00 +25°C° 0 mm 1 mps 728 mmHg 65%

    25 July, Thursday

    Time Temperature Precipitation Wind Pressure Humidity
    00:00 +23°C° 0 mm 0 mps 728 mmHg 67%
    01:00 +22°C° 0 mm 0 mps 728 mmHg 68%
    02:00 +22°C° 0 mm 0 mps 727 mmHg 70%
    03:00 +21°C° 0 mm 0 mps 727 mmHg 72%
    04:00 +22°C° 0 mm 0 mps 727 mmHg 72%
    05:00 +23°C° 0 mm 0 mps 728 mmHg 72%
    06:00 +24°C° 0 mm 0 mps 728 mmHg 71%
    07:00 +26°C° 0 mm 0 mps 728 mmHg 65%
    08:00 +28°C° 0 mm 0 mps 728 mmHg 58%
    09:00 +32°C° 0 mm 1 mps 728 mmHg 52%
    10:00 +33°C° 0 mm 1 mps 727 mmHg 48%
    11:00 +34°C° 0 mm 1 mps 727 mmHg 45%
    12:00 +35°C° 0 mm 1 mps 727 mmHg 41%
    13:00 +35°C° 0 mm 1 mps 726 mmHg 41%
    14:00 +35°C° 0 mm 1 mps 726 mmHg 40%
    15:00 +36°C° 0 mm 1 mps 726 mmHg 40%
    16:00 +34°C° 0.1 mm 1 mps 726 mmHg 48%
    17:00 +32°C° 0.1 mm 1 mps 726 mmHg 56%
    18:00 +29°C° 0.1 mm 0 mps 725 mmHg 63%
    19:00 +29°C° 0.1 mm 1 mps 726 mmHg 64%
    20:00 +28°C° 0.1 mm 1 mps 726 mmHg 65%
    21:00 +26°C° 0.1 mm 1 mps 726 mmHg 65%
    22:00 +25°C° 0.3 mm 1 mps 726 mmHg 66%
    23:00 +24°C° 0.3 mm 1 mps 726 mmHg 67%

    26 July, Friday

    Time Temperature Precipitation Wind Pressure Humidity
    00:00 +23°C° 0.3 mm 1 mps 726 mmHg 69%
    01:00 +23°C° 0 mm 1 mps 726 mmHg 70%
    02:00 +22°C° 0 mm 1 mps 725 mmHg 71%
    03:00 +22°C° 0 mm 1 mps 725 mmHg 73%
    04:00 +23°C° 0 mm 1 mps 726 mmHg 73%
    05:00 +23°C° 0 mm 1 mps 726 mmHg 74%
    06:00 +24°C° 0 mm 1 mps 726 mmHg 74%
    07:00 +26°C° 0 mm 1 mps 727 mmHg 65%
    08:00 +28°C° 0 mm 1 mps 727 mmHg 57%
    09:00 +30°C° 0 mm 2 mps 727 mmHg 48%
    10:00 +30°C° 0 mm 2 mps 727 mmHg 45%
    11:00 +31°C° 0 mm 2 mps 727 mmHg 43%
    12:00 +32°C° 0 mm 2 mps 727 mmHg 40%
    13:00 +32°C° 0 mm 2 mps 726 mmHg 44%
    14:00 +31°C° 0 mm 3 mps 726 mmHg 48%
    15:00 +30°C° 0 mm 3 mps 726 mmHg 51%
    16:00 +29°C° 0 mm 3 mps 726 mmHg 59%
    17:00 +28°C° 0 mm 2 mps 726 mmHg 67%
    18:00 +27°C° 0 mm 2 mps 727 mmHg 74%
    19:00 +25°C° 0.2 mm 1 mps 727 mmHg 80%
    20:00 +23°C° 0.2 mm 1 mps 727 mmHg 86%
    21:00 +22°C° 0.2 mm 1 mps 727 mmHg 93%
    22:00 +21°C° 0 mm 1 mps 727 mmHg 93%
    23:00 +19°C° 0 mm 0 mps 728 mmHg 93%
    Show more